Location: Robledo de Chavela
(40.5014°N, 4.2377°W)
Time: 13:07:48
(UTC+00:00)

Cosmos 2219 - Pass Details

Date: 18 April 2024
Orbit: 834 x 858 km, 71.1° (Epoch: 23 May)

Event Time Altitude Azimuth Distance (km) Brightness Sun altitude
Rises 22:29:58 0° 336° (NNW) 3,406 7.4 -32.7°
Reaches altitude 10° 22:32:25 10° 337° (NNW) 2,464 6.4 -33.0°
Enters shadow 22:36:27 48° 337° (NNW) 1,080 4.0 -33.3°
